START_TIME,STEP,MOV.,M35,t_acc.,PL05,t_acc.,PL06,t_acc.,PL07,t_acc.
1979-07-18 15:00:23.810 ,1,0,0.,4.8,8.,4.8,4.,4.8,5.,4.8
1979-07-18 15:00:28.610 ,1,0,0.,4.8,7.,4.8,3.,4.8,4.,4.8
1979-07-18 15:00:33.410 ,1,0,0.,4.8,6.,4.8,3.,4.8,1.,4.8
1979-07-18 15:00:38.210 ,1,0,0.,4.8,8.,4.8,4.,4.8,4.,4.8
1979-07-18 15:00:43.010 ,1,0,0.,4.8,5.,4.8,4.,4.8,3.,4.8
1979-07-18 15:00:47.810 ,2,0,0.,4.8,3.,4.8,4.,4.8,0.,4.8
1979-07-18 15:00:52.610 ,2,0,0.,4.8,5.,4.8,3.,4.8,5.,4.8
1979-07-18 15:00:57.410 ,2,0,0.,4.8,7.,4.8,6.,4.8,2.,4.8
1979-07-18 15:01:02.210 ,2,0,0.,4.8,15.,4.8,6.,4.8,1.,4.8
1979-07-18 15:01:07.010 ,2,0,0.,4.8,18.,4.8,10.,4.8,8.,4.8
1979-07-18 15:01:11.810 ,2,0,0.,4.8,16.,4.8,6.,4.8,6.,4.8
1979-07-18 15:01:16.610 ,2,0,0.,4.8,11.,4.8,5.,4.8,3.,4.8
1979-07-18 15:01:21.410 ,2,0,0.,4.8,10.,4.8,11.,4.8,4.,4.8
1979-07-18 15:01:26.210 ,2,0,0.,4.8,9.,4.8,7.,4.8,3.,4.8
1979-07-18 15:01:31.010 ,2,0,0.,4.8,13.,4.8,2.,4.8,3.,4.8
1979-07-18 15:02:23.810 ,0,0,0.,4.8,11.,4.8,4.,4.8,2.,4.8
1979-07-18 15:02:28.610 ,0,0,0.,4.8,10.,4.8,8.,4.8,3.,4.8
1979-07-18 15:02:33.410 ,0,0,0.,4.8,8.,4.8,5.,4.8,3.,4.8
1979-07-18 15:02:38.210 ,0,0,0.,4.8,4.,4.8,5.,4.8,1.,4.8
1979-07-18 15:02:43.010 ,0,0,0.,4.8,6.,4.8,1.,4.8,1.,4.8
1979-07-18 15:02:47.810 ,0,0,0.,4.8,1.,4.8,4.,4.8,5.,4.8
1979-07-18 15:02:52.610 ,0,0,0.,4.8,10.,4.8,4.,4.8,2.,4.8
1979-07-18 15:02:57.410 ,0,0,0.,4.8,7.,4.8,4.,4.8,0.,4.8
1979-07-18 15:03:02.210 ,0,0,0.,4.8,4.,4.8,2.,4.8,5.,4.8
1979-07-18 15:03:07.010 ,0,0,0.,4.8,8.,4.8,2.,4.8,6.,4.8
1979-07-18 15:03:11.810 ,5,0,0.,4.8,1.,4.8,4.,4.8,3.,4.8
1979-07-18 15:03:16.610 ,5,0,0.,4.8,6.,4.8,5.,4.8,0.,4.8
1979-07-18 15:03:21.410 ,5,0,0.,4.8,7.,4.8,3.,4.8,3.,4.8
1979-07-18 15:03:26.210 ,5,0,0.,4.8,5.,4.8,4.,4.8,3.,4.8
1979-07-18 15:03:31.010 ,5,0,0.,4.8,3.,4.8,4.,4.8,3.,4.8
1979-07-18 15:03:35.810 ,5,0,0.,4.8,3.,4.8,5.,4.8,5.,4.8
1979-07-18 15:03:40.610 ,5,0,0.,4.8,3.,4.8,3.,4.8,4.,4.8
1979-07-18 15:03:45.410 ,5,0,0.,4.8,5.,4.8,2.,4.8,0.,4.8
1979-07-18 15:03:50.210 ,5,0,0.,4.8,4.,4.8,1.,4.8,2.,4.8
1979-07-18 15:03:55.010 ,5,0,0.,4.8,3.,4.8,3.,4.8,4.,4.8
1979-07-18 15:03:59.810 ,6,0,0.,4.8,6.,4.8,2.,4.8,3.,4.8
1979-07-18 15:04:04.610 ,6,0,0.,4.8,9.,4.8,4.,4.8,2.,4.8
1979-07-18 15:04:09.410 ,6,0,0.,4.8,4.,4.8,2.,4.8,2.,4.8
1979-07-18 15:04:14.210 ,6,0,0.,4.8,9.,4.8,2.,4.8,5.,4.8
1979-07-18 15:04:19.010 ,6,0,0.,4.8,2.,4.8,4.,4.8,1.,4.8
1979-07-18 15:04:23.810 ,6,0,0.,4.8,6.,4.8,5.,4.8,2.,4.8
1979-07-18 15:04:28.610 ,6,0,0.,4.8,4.,4.8,2.,4.8,6.,4.8
1979-07-18 15:04:33.410 ,6,0,0.,4.8,3.,4.8,5.,4.8,1.,4.8
1979-07-18 15:04:38.210 ,6,0,0.,4.8,3.,4.8,3.,4.8,2.,4.8
1979-07-18 15:04:43.010 ,6,0,0.,4.8,11.,4.8,2.,4.8,1.,4.8
1979-07-18 15:04:47.810 ,7,0,0.,4.8,7.,4.8,2.,4.8,5.,4.8
1979-07-18 15:04:52.610 ,7,0,0.,4.8,3.,4.8,0.,4.8,0.,4.8
1979-07-18 15:04:57.410 ,7,0,0.,4.8,0.,4.8,0.,4.8,0.,4.8
1979-07-18 15:05:02.210 ,7,0,0.,4.8,4.,4.8,0.,4.8,0.,4.8
1979-07-18 15:05:07.010 ,7,0,0.,4.8,0.,4.8,0.,4.8,0.,4.8
1979-07-18 15:05:11.810 ,7,0,0.,4.8,0.,4.8,0.,4.8,0.,4.8
1979-07-18 15:05:16.610 ,7,0,0.,4.8,0.,4.8,0.,4.8,0.,4.8
1979-07-18 15:05:21.410 ,7,0,0.,4.8,3.,4.8,0.,4.8,0.,4.8
1979-07-18 15:05:26.210 ,7,0,0.,4.8,1.,4.8,0.,4.8,1.,4.8
1979-07-18 15:05:31.010 ,7,0,0.,4.8,2.,4.8,0.,4.8,0.,4.8
1979-07-18 15:05:35.810 ,7,0,0.,4.8,0.,4.8,0.,4.8,0.,4.8
1979-07-18 15:05:40.610 ,7,0,0.,4.8,0.,4.8,0.,4.8,0.,4.8
1979-07-18 15:05:45.410 ,7,0,0.,4.8,0.,4.8,0.,4.8,0.,4.8
1979-07-18 15:05:50.210 ,7,0,0.,4.8,0.,4.8,0.,4.8,0.,4.8
1979-07-18 15:05:55.010 ,7,0,0.,4.8,0.,4.8,0.,4.8,0.,4.8
1979-07-18 15:05:59.810 ,7,0,0.,4.8,0.,4.8,0.,4.8,0.,4.8
1979-07-18 15:06:04.610 ,7,0,0.,4.8,1.,4.8,0.,4.8,0.,4.8
1979-07-18 15:06:09.410 ,7,0,0.,4.8,0.,4.8,1.,4.8,1.,4.8
1979-07-18 15:06:14.210 ,7,0,0.,4.8,1.,4.8,0.,4.8,0.,4.8
1979-07-18 15:06:19.010 ,7,0,0.,4.8,1.,4.8,0.,4.8,0.,4.8
1979-07-18 15:06:23.810 ,6,0,0.,4.8,1.,4.8,0.,4.8,0.,4.8
1979-07-18 15:06:28.610 ,6,0,0.,4.8,0.,4.8,0.,4.8,0.,4.8
1979-07-18 15:06:33.410 ,6,0,0.,4.8,4.,4.8,3.,4.8,4.,4.8
1979-07-18 15:06:38.210 ,6,0,0.,4.8,8.,4.8,2.,4.8,1.,4.8
1979-07-18 15:06:43.010 ,6,0,0.,4.8,6.,4.8,1.,4.8,1.,4.8
1979-07-18 15:06:47.810 ,6,0,0.,4.8,3.,4.8,5.,4.8,5.,4.8
1979-07-18 15:06:52.610 ,6,0,0.,4.8,10.,4.8,5.,4.8,4.,4.8
1979-07-18 15:06:57.410 ,6,0,0.,4.8,2.,4.8,2.,4.8,3.,4.8
1979-07-18 15:07:02.210 ,6,0,0.,4.8,5.,4.8,3.,4.8,6.,4.8
1979-07-18 15:07:07.010 ,6,0,0.,4.8,5.,4.8,2.,4.8,2.,4.8
1979-07-18 15:07:11.810 ,5,0,0.,4.8,9.,4.8,2.,4.8,2.,4.8
1979-07-18 15:07:16.610 ,5,0,0.,4.8,1.,4.8,5.,4.8,3.,4.8
1979-07-18 15:07:21.410 ,5,0,0.,4.8,3.,4.8,6.,4.8,2.,4.8
1979-07-18 15:07:26.210 ,5,0,0.,4.8,7.,4.8,1.,4.8,4.,4.8
1979-07-18 15:07:31.010 ,5,0,0.,4.8,5.,4.8,4.,4.8,3.,4.8
1979-07-18 15:07:35.810 ,5,0,0.,4.8,8.,4.8,1.,4.8,1.,4.8
1979-07-18 15:07:40.610 ,5,0,0.,4.8,8.,4.8,2.,4.8,0.,4.8
1979-07-18 15:07:45.410 ,5,0,0.,4.8,1.,4.8,3.,4.8,2.,4.8
1979-07-18 15:07:50.210 ,5,0,0.,4.8,0.,4.8,5.,4.8,1.,4.8
1979-07-18 15:07:55.010 ,5,0,0.,4.8,3.,4.8,5.,4.8,4.,4.8
1979-07-18 15:07:59.810 ,4,0,0.,4.8,8.,4.8,5.,4.8,8.,4.8
1979-07-18 15:08:04.610 ,4,0,0.,4.8,4.,4.8,2.,4.8,2.,4.8
1979-07-18 15:08:09.410 ,4,0,0.,4.8,6.,4.8,1.,4.8,3.,4.8
1979-07-18 15:08:14.210 ,4,0,0.,4.8,7.,4.8,6.,4.8,2.,4.8
1979-07-18 15:08:19.010 ,4,0,0.,4.8,8.,4.8,6.,4.8,2.,4.8
1979-07-18 15:08:23.810 ,4,0,0.,4.8,7.,4.8,7.,4.8,4.,4.8
1979-07-18 15:08:28.610 ,4,0,0.,4.8,5.,4.8,3.,4.8,1.,4.8
1979-07-18 15:08:33.410 ,4,0,0.,4.8,7.,4.8,4.,4.8,2.,4.8
1979-07-18 15:08:38.210 ,4,0,0.,4.8,8.,4.8,4.,4.8,3.,4.8
1979-07-18 15:08:43.010 ,4,0,0.,4.8,3.,4.8,2.,4.8,4.,4.8
1979-07-18 15:08:47.810 ,3,0,0.,4.8,5.,4.8,5.,4.8,1.,4.8
1979-07-18 15:08:52.610 ,3,0,0.,4.8,4.,4.8,5.,4.8,2.,4.8
1979-07-18 15:08:57.410 ,3,0,0.,4.8,9.,4.8,3.,4.8,2.,4.8
1979-07-18 15:09:02.210 ,3,0,0.,4.8,5.,4.8,4.,4.8,2.,4.8
1979-07-18 15:09:07.010 ,3,0,0.,4.8,8.,4.8,2.,4.8,4.,4.8
1979-07-18 15:09:11.810 ,3,0,0.,4.8,9.,4.8,5.,4.8,4.,4.8
1979-07-18 15:09:16.610 ,3,0,0.,4.8,9.,4.8,3.,4.8,5.,4.8
1979-07-18 15:09:21.410 ,3,0,0.,4.8,11.,4.8,3.,4.8,2.,4.8
1979-07-18 15:09:26.210 ,3,0,0.,4.8,8.,4.8,6.,4.8,4.,4.8
1979-07-18 15:09:31.010 ,3,0,0.,4.8,11.,4.8,4.,4.8,6.,4.8
1979-07-18 15:09:35.810 ,2,0,0.,4.8,10.,4.8,1.,4.8,2.,4.8
1979-07-18 15:09:40.610 ,2,0,0.,4.8,8.,4.8,2.,4.8,2.,4.8
1979-07-18 15:09:45.410 ,2,0,0.,4.8,21.,4.8,16.,4.8,5.,4.8
1979-07-18 15:09:50.210 ,2,0,0.,4.8,29.,4.8,10.,4.8,9.,4.8
1979-07-18 15:09:55.010 ,2,0,1.,4.8,33.,4.8,11.,4.8,2.,4.8
1979-07-18 15:09:59.810 ,2,0,0.,4.8,28.,4.8,10.,4.8,6.,4.8
1979-07-18 15:10:04.610 ,2,0,0.,4.8,41.,4.8,6.,4.8,7.,4.8
1979-07-18 15:10:09.410 ,2,0,0.,4.8,24.,4.8,10.,4.8,4.,4.8
1979-07-18 15:10:14.210 ,2,0,1.,4.8,41.,4.8,15.,4.8,6.,4.8
1979-07-18 15:10:19.010 ,2,0,0.,4.8,39.,4.8,19.,4.8,6.,4.8
1979-07-18 15:10:23.810 ,1,0,0.,4.8,39.,4.8,12.,4.8,8.,4.8
1979-07-18 15:10:28.610 ,1,0,0.,4.8,43.,4.8,8.,4.8,9.,4.8
1979-07-18 15:10:33.410 ,1,0,0.,4.8,7.,4.8,5.,4.8,0.,4.8
1979-07-18 15:10:38.210 ,1,0,0.,4.8,7.,4.8,1.,4.8,6.,4.8
1979-07-18 15:10:43.010 ,1,0,0.,4.8,4.,4.8,3.,4.8,2.,4.8
1979-07-18 15:10:47.810 ,1,0,0.,4.8,10.,4.8,2.,4.8,5.,4.8
1979-07-18 15:10:52.610 ,1,0,0.,4.8,8.,4.8,3.,4.8,6.,4.8
1979-07-18 15:10:57.410 ,1,0,0.,4.8,4.,4.8,3.,4.8,0.,4.8
1979-07-18 15:11:02.210 ,1,0,0.,4.8,4.,4.8,2.,4.8,4.,4.8
1979-07-18 15:11:07.010 ,1,0,0.,4.8,3.,4.8,6.,4.8,3.,4.8
1979-07-18 15:11:11.810 ,0,0,0.,4.8,2.,4.8,7.,4.8,4.,4.8
1979-07-18 15:11:16.610 ,0,0,0.,4.8,2.,4.8,5.,4.8,2.,4.8
1979-07-18 15:11:21.410 ,0,0,0.,4.8,7.,4.8,6.,4.8,2.,4.8
1979-07-18 15:11:26.210 ,0,0,0.,4.8,3.,4.8,0.,4.8,4.,4.8
1979-07-18 15:11:31.010 ,0,0,0.,4.8,1.,4.8,3.,4.8,2.,4.8
1979-07-18 15:11:35.810 ,0,0,0.,4.8,4.,4.8,3.,4.8,2.,4.8
1979-07-18 15:11:40.610 ,0,0,0.,4.8,9.,4.8,2.,4.8,2.,4.8
1979-07-18 15:11:45.410 ,0,0,0.,4.8,7.,4.8,2.,4.8,3.,4.8
1979-07-18 15:11:50.210 ,0,0,0.,4.8,6.,4.8,4.,4.8,3.,4.8
1979-07-18 15:11:55.010 ,0,0,0.,4.8,3.,4.8,3.,4.8,4.,4.8
1979-07-18 15:11:59.810 ,0,0,0.,4.8,5.,4.8,7.,4.8,3.,4.8
1979-07-18 15:12:04.610 ,0,0,0.,4.8,1.,4.8,4.,4.8,3.,4.8
1979-07-18 15:12:09.410 ,0,0,0.,4.8,6.,4.8,5.,4.8,4.,4.8
1979-07-18 15:12:14.210 ,0,0,0.,4.8,4.,4.8,3.,4.8,2.,4.8
1979-07-18 15:12:19.010 ,0,0,0.,4.8,5.,4.8,2.,4.8,5.,4.8
1979-07-18 15:12:23.810 ,0,0,0.,4.8,12.,4.8,2.,4.8,1.,4.8
1979-07-18 15:12:28.610 ,0,0,0.,4.8,8.,4.8,4.,4.8,2.,4.8
1979-07-18 15:12:33.410 ,0,0,0.,4.8,3.,4.8,4.,4.8,2.,4.8
1979-07-18 15:12:38.210 ,0,0,0.,4.8,4.,4.8,1.,4.8,1.,4.8
1979-07-18 15:12:43.010 ,0,0,0.,4.8,2.,4.8,2.,4.8,2.,4.8
1979-07-18 15:12:47.810 ,1,0,0.,4.8,9.,4.8,3.,4.8,5.,4.8
1979-07-18 15:12:52.610 ,1,0,0.,4.8,4.,4.8,6.,4.8,1.,4.8
1979-07-18 15:12:57.410 ,1,0,0.,4.8,8.,4.8,4.,4.8,2.,4.8
1979-07-18 15:13:02.210 ,1,0,0.,4.8,11.,4.8,4.,4.8,5.,4.8
1979-07-18 15:13:07.010 ,1,0,0.,4.8,6.,4.8,3.,4.8,3.,4.8
1979-07-18 15:13:11.810 ,1,0,0.,4.8,7.,4.8,3.,4.8,0.,4.8
1979-07-18 15:13:16.610 ,1,0,0.,4.8,7.,4.8,1.,4.8,1.,4.8
1979-07-18 15:13:21.410 ,1,0,0.,4.8,7.,4.8,4.,4.8,2.,4.8
1979-07-18 15:13:26.210 ,1,0,0.,4.8,5.,4.8,4.,4.8,5.,4.8
1979-07-18 15:13:31.010 ,1,0,0.,4.8,5.,4.8,4.,4.8,0.,4.8
1979-07-18 15:13:35.810 ,2,0,0.,4.8,5.,4.8,4.,4.8,3.,4.8
1979-07-18 15:13:40.610 ,2,0,0.,4.8,6.,4.8,4.,4.8,0.,4.8
1979-07-18 15:13:45.410 ,2,0,1.,4.8,200.,4.8,23.,4.8,11.,4.8
1979-07-18 15:13:50.210 ,2,0,0.,4.8,244.,4.8,35.,4.8,6.,4.8
1979-07-18 15:13:55.010 ,2,0,0.,4.8,240.,4.8,25.,4.8,10.,4.8
1979-07-18 15:13:59.810 ,2,0,0.,4.8,224.,4.8,22.,4.8,9.,4.8
1979-07-18 15:14:04.610 ,2,0,0.,4.8,232.,4.8,37.,4.8,5.,4.8
1979-07-18 15:14:09.410 ,2,0,0.,4.8,180.,4.8,32.,4.8,5.,4.8
1979-07-18 15:14:14.210 ,2,0,0.,4.8,196.,4.8,32.,4.8,3.,4.8
1979-07-18 15:14:19.010 ,2,0,0.,4.8,204.,4.8,32.,4.8,5.,4.8
1979-07-18 15:14:23.810 ,3,0,0.,4.8,208.,4.8,37.,4.8,5.,4.8
1979-07-18 15:14:28.610 ,3,0,0.,4.8,208.,4.8,39.,4.8,8.,4.8
1979-07-18 15:14:33.410 ,3,0,0.,4.8,32.,4.8,6.,4.8,3.,4.8
1979-07-18 15:14:38.210 ,3,0,0.,4.8,51.,4.8,12.,4.8,1.,4.8
1979-07-18 15:14:43.010 ,3,0,0.,4.8,32.,4.8,4.,4.8,3.,4.8
1979-07-18 15:14:47.810 ,3,0,0.,4.8,40.,4.8,8.,4.8,2.,4.8
1979-07-18 15:14:52.610 ,3,0,0.,4.8,33.,4.8,4.,4.8,2.,4.8
1979-07-18 15:14:57.410 ,3,0,0.,4.8,51.,4.8,6.,4.8,5.,4.8
1979-07-18 15:15:02.210 ,3,0,0.,4.8,59.,4.8,8.,4.8,4.,4.8
1979-07-18 15:15:07.010 ,3,0,0.,4.8,34.,4.8,4.,4.8,4.,4.8
1979-07-18 15:15:11.810 ,4,0,0.,4.8,27.,4.8,12.,4.8,6.,4.8
1979-07-18 15:15:16.610 ,4,0,0.,4.8,24.,4.8,1.,4.8,5.,4.8
1979-07-18 15:15:21.410 ,4,0,0.,4.8,7.,4.8,5.,4.8,5.,4.8
1979-07-18 15:15:26.210 ,4,0,0.,4.8,14.,4.8,4.,4.8,2.,4.8
1979-07-18 15:15:31.010 ,4,0,0.,4.8,11.,4.8,6.,4.8,8.,4.8
1979-07-18 15:15:35.810 ,4,0,0.,4.8,15.,4.8,4.,4.8,1.,4.8
1979-07-18 15:15:40.610 ,4,0,0.,4.8,11.,4.8,9.,4.8,3.,4.8
1979-07-18 15:15:45.410 ,4,0,0.,4.8,13.,4.8,3.,4.8,1.,4.8
1979-07-18 15:15:50.210 ,4,0,0.,4.8,11.,4.8,4.,4.8,2.,4.8
1979-07-18 15:15:55.010 ,4,0,0.,4.8,6.,4.8,8.,4.8,3.,4.8
1979-07-18 15:15:59.810 ,5,0,0.,4.8,8.,4.8,1.,4.8,4.,4.8
1979-07-18 15:16:04.610 ,5,0,0.,4.8,6.,4.8,6.,4.8,10.,4.8
1979-07-18 15:16:09.410 ,5,0,0.,4.8,3.,4.8,4.,4.8,0.,4.8
1979-07-18 15:16:14.210 ,5,0,0.,4.8,6.,4.8,3.,4.8,4.,4.8
1979-07-18 15:16:19.010 ,5,0,0.,4.8,4.,4.8,4.,4.8,2.,4.8
1979-07-18 15:16:23.810 ,5,0,0.,4.8,5.,4.8,2.,4.8,1.,4.8
1979-07-18 15:16:28.610 ,5,0,0.,4.8,7.,4.8,2.,4.8,1.,4.8
1979-07-18 15:16:33.410 ,5,0,0.,4.8,5.,4.8,2.,4.8,5.,4.8
1979-07-18 15:16:38.210 ,5,0,0.,4.8,8.,4.8,4.,4.8,5.,4.8
1979-07-18 15:16:43.010 ,5,0,0.,4.8,7.,4.8,2.,4.8,1.,4.8
1979-07-18 15:16:47.810 ,6,0,0.,4.8,4.,4.8,3.,4.8,2.,4.8
1979-07-18 15:16:52.610 ,6,0,0.,4.8,3.,4.8,2.,4.8,3.,4.8
1979-07-18 15:16:57.410 ,6,0,0.,4.8,3.,4.8,5.,4.8,2.,4.8
1979-07-18 15:17:02.210 ,6,0,0.,4.8,3.,4.8,5.,4.8,2.,4.8
1979-07-18 15:17:07.010 ,6,0,0.,4.8,6.,4.8,2.,4.8,2.,4.8
1979-07-18 15:17:11.810 ,6,0,0.,4.8,2.,4.8,3.,4.8,1.,4.8
1979-07-18 15:17:16.610 ,6,0,0.,4.8,7.,4.8,6.,4.8,6.,4.8
1979-07-18 15:17:21.410 ,6,0,0.,4.8,11.,4.8,2.,4.8,4.,4.8
1979-07-18 15:17:26.210 ,6,0,0.,4.8,6.,4.8,2.,4.8,7.,4.8
1979-07-18 15:17:31.010 ,6,0,0.,4.8,6.,4.8,3.,4.8,3.,4.8
1979-07-18 15:17:35.810 ,7,0,0.,4.8,6.,4.8,6.,4.8,2.,4.8
1979-07-18 15:17:40.610 ,7,0,0.,4.8,3.,4.8,4.,4.8,3.,4.8
1979-07-18 15:17:45.410 ,7,0,0.,4.8,1.,4.8,0.,4.8,0.,4.8
1979-07-18 15:17:50.210 ,7,0,0.,4.8,0.,4.8,0.,4.8,0.,4.8
1979-07-18 15:17:55.010 ,7,0,0.,4.8,0.,4.8,0.,4.8,0.,4.8
1979-07-18 15:17:59.810 ,7,0,0.,4.8,1.,4.8,0.,4.8,0.,4.8
1979-07-18 15:18:04.610 ,7,0,0.,4.8,3.,4.8,0.,4.8,0.,4.8
1979-07-18 15:18:09.410 ,7,0,0.,4.8,0.,4.8,0.,4.8,0.,4.8
1979-07-18 15:18:14.210 ,7,0,0.,4.8,0.,4.8,0.,4.8,0.,4.8
1979-07-18 15:18:19.010 ,7,0,0.,4.8,0.,4.8,0.,4.8,0.,4.8
1979-07-18 15:18:23.810 ,7,0,0.,4.8,0.,4.8,0.,4.8,0.,4.8
1979-07-18 15:18:28.610 ,7,0,0.,4.8,1.,4.8,0.,4.8,0.,4.8
1979-07-18 15:18:33.410 ,7,0,0.,4.8,0.,4.8,0.,4.8,0.,4.8
1979-07-18 15:18:38.210 ,7,0,0.,4.8,0.,4.8,0.,4.8,0.,4.8
1979-07-18 15:18:43.010 ,7,0,0.,4.8,0.,4.8,0.,4.8,0.,4.8
1979-07-18 15:18:47.810 ,7,0,0.,4.8,0.,4.8,0.,4.8,0.,4.8
1979-07-18 15:18:52.610 ,7,0,0.,4.8,0.,4.8,0.,4.8,0.,4.8
1979-07-18 15:18:57.410 ,7,0,0.,4.8,0.,4.8,0.,4.8,0.,4.8
1979-07-18 15:19:02.210 ,7,0,0.,4.8,1.,4.8,0.,4.8,0.,4.8
1979-07-18 15:19:07.010 ,7,0,0.,4.8,0.,4.8,0.,4.8,0.,4.8
1979-07-18 15:19:11.810 ,6,0,0.,4.8,2.,4.8,0.,4.8,1.,4.8
1979-07-18 15:19:16.610 ,6,0,0.,4.8,0.,4.8,0.,4.8,1.,4.8
1979-07-18 15:19:21.410 ,6,0,0.,4.8,3.,4.8,1.,4.8,1.,4.8
1979-07-18 15:19:26.210 ,6,0,0.,4.8,7.,4.8,4.,4.8,2.,4.8
1979-07-18 15:19:31.010 ,6,0,0.,4.8,9.,4.8,3.,4.8,1.,4.8
1979-07-18 15:19:35.810 ,6,0,0.,4.8,6.,4.8,6.,4.8,1.,4.8
1979-07-18 15:19:40.610 ,6,0,0.,4.8,7.,4.8,4.,4.8,0.,4.8
1979-07-18 15:19:45.410 ,6,0,0.,4.8,6.,4.8,5.,4.8,3.,4.8
1979-07-18 15:19:50.210 ,6,0,0.,4.8,4.,4.8,7.,4.8,3.,4.8
1979-07-18 15:19:55.010 ,6,0,0.,4.8,7.,4.8,1.,4.8,4.,4.8
1979-07-18 15:19:59.810 ,5,0,0.,4.8,7.,4.8,3.,4.8,3.,4.8
1979-07-18 15:20:04.610 ,5,0,0.,4.8,5.,4.8,4.,4.8,0.,4.8
1979-07-18 15:20:09.410 ,5,0,0.,4.8,12.,4.8,1.,4.8,3.,4.8
1979-07-18 15:20:14.210 ,5,0,0.,4.8,7.,4.8,4.,4.8,2.,4.8
1979-07-18 15:20:19.010 ,5,0,0.,4.8,8.,4.8,1.,4.8,1.,4.8
1979-07-18 15:20:23.810 ,5,0,0.,4.8,17.,4.8,6.,4.8,1.,4.8
1979-07-18 15:20:28.610 ,5,0,0.,4.8,9.,4.8,4.,4.8,3.,4.8
1979-07-18 15:20:33.410 ,5,0,0.,4.8,8.,4.8,3.,4.8,3.,4.8
1979-07-18 15:20:38.210 ,5,0,0.,4.8,9.,4.8,1.,4.8,2.,4.8
1979-07-18 15:20:43.010 ,5,0,0.,4.8,18.,4.8,7.,4.8,4.,4.8
1979-07-18 15:20:47.810 ,4,0,0.,4.8,19.,4.8,1.,4.8,0.,4.8
1979-07-18 15:20:52.610 ,4,0,0.,4.8,17.,4.8,4.,4.8,4.,4.8
1979-07-18 15:20:57.410 ,4,0,0.,4.8,26.,4.8,7.,4.8,1.,4.8
1979-07-18 15:21:02.210 ,4,0,0.,4.8,22.,4.8,10.,4.8,2.,4.8
1979-07-18 15:21:07.010 ,4,0,0.,4.8,9.,4.8,6.,4.8,1.,4.8
1979-07-18 15:21:11.810 ,4,0,0.,4.8,18.,4.8,13.,4.8,3.,4.8
1979-07-18 15:21:16.610 ,4,0,0.,4.8,17.,4.8,5.,4.8,8.,4.8
1979-07-18 15:21:21.410 ,4,0,0.,4.8,16.,4.8,3.,4.8,3.,4.8
1979-07-18 15:21:26.210 ,4,0,0.,4.8,22.,4.8,11.,4.8,3.,4.8
1979-07-18 15:21:31.010 ,4,0,0.,4.8,21.,4.8,4.,4.8,5.,4.8
1979-07-18 15:21:35.810 ,3,0,0.,4.8,34.,4.8,9.,4.8,3.,4.8
1979-07-18 15:21:40.610 ,3,0,0.,4.8,43.,4.8,5.,4.8,4.,4.8
1979-07-18 15:21:45.410 ,3,0,0.,4.8,90.,4.8,18.,4.8,0.,4.8
1979-07-18 15:21:50.210 ,3,0,0.,4.8,90.,4.8,8.,4.8,5.,4.8
1979-07-18 15:21:55.010 ,3,0,0.,4.8,80.,4.8,10.,4.8,2.,4.8
1979-07-18 15:21:59.810 ,3,0,0.,4.8,70.,4.8,10.,4.8,3.,4.8
1979-07-18 15:22:04.610 ,3,0,0.,4.8,64.,4.8,5.,4.8,8.,4.8
1979-07-18 15:22:09.410 ,3,0,0.,4.8,52.,4.8,10.,4.8,4.,4.8
1979-07-18 15:22:14.210 ,3,0,0.,4.8,46.,4.8,9.,4.8,5.,4.8
1979-07-18 15:22:19.010 ,3,0,0.,4.8,61.,4.8,10.,4.8,2.,4.8
1979-07-18 15:22:23.810 ,2,0,0.,4.8,38.,4.8,12.,4.8,4.,4.8
1979-07-18 15:22:28.610 ,2,0,0.,4.8,41.,4.8,6.,4.8,1.,4.8
1979-07-18 15:22:33.410 ,2,0,0.,4.8,98.,4.8,7.,4.8,9.,4.8
1979-07-18 15:22:38.210 ,2,0,1.,4.8,98.,4.8,10.,4.8,6.,4.8
1979-07-18 15:22:43.010 ,2,0,0.,4.8,74.,4.8,9.,4.8,1.,4.8
1979-07-18 15:22:47.810 ,2,0,0.,4.8,88.,4.8,10.,4.8,5.,4.8
1979-07-18 15:22:52.610 ,2,0,1.,4.8,86.,4.8,20.,4.8,5.,4.8
1979-07-18 15:22:57.410 ,2,0,1.,4.8,86.,4.8,19.,4.8,2.,4.8
1979-07-18 15:23:02.210 ,2,0,0.,4.8,50.,4.8,11.,4.8,5.,4.8
1979-07-18 15:23:07.010 ,2,0,1.,4.8,78.,4.8,16.,4.8,8.,4.8
1979-07-18 15:23:11.810 ,1,0,0.,4.8,78.,4.8,13.,4.8,6.,4.8
1979-07-18 15:23:16.610 ,1,0,0.,4.8,78.,4.8,11.,4.8,1.,4.8
1979-07-18 15:23:21.410 ,1,0,0.,4.8,4.,4.8,4.,4.8,4.,4.8
1979-07-18 15:23:26.210 ,1,0,0.,4.8,9.,4.8,4.,4.8,5.,4.8
1979-07-18 15:23:31.010 ,1,0,0.,4.8,3.,4.8,2.,4.8,6.,4.8
1979-07-18 15:23:35.810 ,1,0,0.,4.8,12.,4.8,3.,4.8,4.,4.8
1979-07-18 15:23:40.610 ,1,0,0.,4.8,7.,4.8,2.,4.8,6.,4.8
1979-07-18 15:23:45.410 ,1,0,0.,4.8,7.,4.8,2.,4.8,1.,4.8
1979-07-18 15:23:50.210 ,1,0,0.,4.8,8.,4.8,6.,4.8,2.,4.8
1979-07-18 15:23:55.010 ,1,0,0.,4.8,8.,4.8,3.,4.8,2.,4.8
1979-07-18 15:23:59.810 ,0,0,0.,4.8,5.,4.8,2.,4.8,1.,4.8
1979-07-18 15:24:04.610 ,0,0,0.,4.8,8.,4.8,4.,4.8,5.,4.8
1979-07-18 15:24:09.410 ,0,0,0.,4.8,4.,4.8,2.,4.8,4.,4.8
1979-07-18 15:24:14.210 ,0,0,0.,4.8,6.,4.8,3.,4.8,2.,4.8
1979-07-18 15:24:19.010 ,0,0,0.,4.8,5.,4.8,5.,4.8,2.,4.8
1979-07-18 15:24:23.810 ,0,0,0.,4.8,7.,4.8,5.,4.8,0.,4.8
1979-07-18 15:24:28.610 ,0,0,0.,4.8,9.,4.8,3.,4.8,2.,4.8
1979-07-18 15:24:33.410 ,0,0,0.,4.8,10.,4.8,4.,4.8,0.,4.8
1979-07-18 15:24:38.210 ,0,0,0.,4.8,7.,4.8,6.,4.8,2.,4.8
1979-07-18 15:24:43.010 ,0,0,0.,4.8,9.,4.8,4.,4.8,2.,4.8
1979-07-18 15:24:47.810 ,0,0,0.,4.8,8.,4.8,5.,4.8,4.,4.8
1979-07-18 15:24:52.610 ,0,0,0.,4.8,18.,4.8,5.,4.8,1.,4.8
1979-07-18 15:24:57.410 ,0,0,0.,4.8,14.,4.8,4.,4.8,3.,4.8
1979-07-18 15:25:02.210 ,0,0,0.,4.8,20.,4.8,5.,4.8,5.,4.8
1979-07-18 15:25:07.010 ,0,0,0.,4.8,32.,4.8,6.,4.8,1.,4.8
1979-07-18 15:25:11.810 ,0,0,0.,4.8,19.,4.8,5.,4.8,2.,4.8
1979-07-18 15:25:16.610 ,0,0,0.,4.8,19.,4.8,5.,4.8,0.,4.8
1979-07-18 15:25:21.410 ,0,0,0.,4.8,22.,4.8,3.,4.8,5.,4.8
1979-07-18 15:25:26.210 ,0,0,0.,4.8,24.,4.8,4.,4.8,4.,4.8
1979-07-18 15:25:31.010 ,0,0,0.,4.8,31.,4.8,5.,4.8,3.,4.8
1979-07-18 15:25:35.810 ,1,0,0.,4.8,24.,4.8,2.,4.8,2.,4.8
1979-07-18 15:25:40.610 ,1,0,0.,4.8,35.,4.8,10.,4.8,1.,4.8
1979-07-18 15:25:45.410 ,1,0,0.,4.8,18.,4.8,8.,4.8,5.,4.8
1979-07-18 15:25:50.210 ,1,0,0.,4.8,19.,4.8,12.,4.8,3.,4.8
1979-07-18 15:25:55.010 ,1,0,0.,4.8,13.,4.8,10.,4.8,4.,4.8
1979-07-18 15:25:59.810 ,1,0,0.,4.8,26.,4.8,6.,4.8,4.,4.8
1979-07-18 15:26:04.610 ,1,0,0.,4.8,19.,4.8,5.,4.8,2.,4.8
1979-07-18 15:26:09.410 ,1,0,0.,4.8,21.,4.8,4.,4.8,2.,4.8
1979-07-18 15:26:14.210 ,1,0,0.,4.8,20.,4.8,7.,4.8,2.,4.8
1979-07-18 15:26:19.010 ,1,0,0.,4.8,19.,4.8,7.,4.8,3.,4.8
1979-07-18 15:26:23.810 ,2,0,0.,4.8,22.,4.8,13.,4.8,0.,4.8
1979-07-18 15:26:28.610 ,2,0,0.,4.8,23.,4.8,11.,4.8,1.,4.8
1979-07-18 15:26:33.410 ,2,0,0.,4.8,232.,4.8,20.,4.8,9.,4.8
1979-07-18 15:26:38.210 ,2,0,0.,4.8,208.,4.8,35.,4.8,14.,4.8
1979-07-18 15:26:43.010 ,2,0,0.,4.8,208.,4.8,21.,4.8,9.,4.8
1979-07-18 15:26:47.810 ,2,0,0.,4.8,188.,4.8,33.,4.8,8.,4.8
1979-07-18 15:26:52.610 ,2,0,0.,4.8,176.,4.8,23.,4.8,5.,4.8
1979-07-18 15:26:57.410 ,2,0,0.,4.8,184.,4.8,36.,4.8,5.,4.8
1979-07-18 15:27:02.210 ,2,0,0.,4.8,176.,4.8,23.,4.8,7.,4.8
1979-07-18 15:27:07.010 ,2,0,0.,4.8,160.,4.8,27.,4.8,3.,4.8
1979-07-18 15:27:11.810 ,3,0,0.,4.8,160.,4.8,27.,4.8,7.,4.8
1979-07-18 15:27:16.610 ,3,0,0.,4.8,168.,4.8,32.,4.8,6.,4.8
1979-07-18 15:27:21.410 ,3,0,0.,4.8,82.,4.8,15.,4.8,3.,4.8
1979-07-18 15:27:26.210 ,3,0,0.,4.8,86.,4.8,14.,4.8,5.,4.8
1979-07-18 15:27:31.010 ,3,0,0.,4.8,82.,4.8,22.,4.8,3.,4.8
1979-07-18 15:27:35.810 ,3,0,0.,4.8,92.,4.8,15.,4.8,3.,4.8
1979-07-18 15:27:40.610 ,3,0,0.,4.8,96.,4.8,13.,4.8,5.,4.8
1979-07-18 15:27:45.410 ,3,0,0.,4.8,104.,4.8,17.,4.8,5.,4.8
1979-07-18 15:27:50.210 ,3,0,0.,4.8,84.,4.8,15.,4.8,5.,4.8
1979-07-18 15:27:55.010 ,3,0,0.,4.8,102.,4.8,8.,4.8,2.,4.8
1979-07-18 15:27:59.810 ,4,0,1.,4.8,110.,4.8,16.,4.8,4.,4.8
1979-07-18 15:28:04.610 ,4,0,0.,4.8,102.,4.8,21.,4.8,5.,4.8
1979-07-18 15:28:09.410 ,4,0,0.,4.8,64.,4.8,7.,4.8,2.,4.8
1979-07-18 15:28:14.210 ,4,0,0.,4.8,56.,4.8,16.,4.8,2.,4.8
1979-07-18 15:28:19.010 ,4,0,0.,4.8,49.,4.8,2.,4.8,8.,4.8
1979-07-18 15:28:23.810 ,4,0,0.,4.8,56.,4.8,4.,4.8,3.,4.8
1979-07-18 15:28:28.610 ,4,0,0.,4.8,68.,4.8,8.,4.8,2.,4.8
1979-07-18 15:28:33.410 ,4,0,0.,4.8,61.,4.8,7.,4.8,3.,4.8
1979-07-18 15:28:38.210 ,4,0,0.,4.8,55.,4.8,5.,4.8,2.,4.8
1979-07-18 15:28:43.010 ,4,0,0.,4.8,70.,4.8,7.,4.8,2.,4.8
1979-07-18 15:28:47.810 ,5,0,0.,4.8,90.,4.8,11.,4.8,5.,4.8
1979-07-18 15:28:52.610 ,5,0,0.,4.8,76.,4.8,17.,4.8,5.,4.8
1979-07-18 15:28:57.410 ,5,0,0.,4.8,41.,4.8,7.,4.8,5.,4.8
1979-07-18 15:29:02.210 ,5,0,0.,4.8,50.,4.8,6.,4.8,5.,4.8
1979-07-18 15:29:07.010 ,5,0,0.,4.8,41.,4.8,11.,4.8,3.,4.8
1979-07-18 15:29:11.810 ,5,0,0.,4.8,42.,4.8,5.,4.8,1.,4.8
1979-07-18 15:29:16.610 ,5,0,0.,4.8,59.,4.8,6.,4.8,2.,4.8
1979-07-18 15:29:21.410 ,5,0,0.,4.8,50.,4.8,13.,4.8,1.,4.8
1979-07-18 15:29:26.210 ,5,0,0.,4.8,59.,4.8,8.,4.8,1.,4.8
1979-07-18 15:29:31.010 ,5,0,0.,4.8,48.,4.8,6.,4.8,7.,4.8
1979-07-18 15:29:35.810 ,6,0,0.,4.8,57.,4.8,3.,4.8,3.,4.8
1979-07-18 15:29:40.610 ,6,0,0.,4.8,50.,4.8,4.,4.8,7.,4.8
1979-07-18 15:29:45.410 ,6,0,0.,4.8,36.,4.8,10.,4.8,1.,4.8
1979-07-18 15:29:50.210 ,6,0,0.,4.8,40.,4.8,5.,4.8,1.,4.8
1979-07-18 15:29:55.010 ,6,0,0.,4.8,48.,4.8,4.,4.8,1.,4.8
1979-07-18 15:29:59.810 ,6,0,0.,4.8,35.,4.8,6.,4.8,2.,4.8
1979-07-18 15:30:04.610 ,6,0,0.,4.8,50.,4.8,6.,4.8,2.,4.8
1979-07-18 15:30:09.410 ,6,0,0.,4.8,53.,4.8,7.,4.8,2.,4.8
1979-07-18 15:30:14.210 ,6,0,0.,4.8,43.,4.8,6.,4.8,4.,4.8
1979-07-18 15:30:19.010 ,6,0,0.,4.8,42.,4.8,4.,4.8,3.,4.8
1979-07-18 15:30:23.810 ,7,0,0.,4.8,36.,4.8,3.,4.8,3.,4.8
1979-07-18 15:30:28.610 ,7,0,0.,4.8,42.,4.8,5.,4.8,3.,4.8
1979-07-18 15:30:33.410 ,7,0,0.,4.8,1.,4.8,0.,4.8,0.,4.8
1979-07-18 15:30:38.210 ,7,0,0.,4.8,1.,4.8,0.,4.8,0.,4.8
1979-07-18 15:30:43.010 ,7,0,0.,4.8,0.,4.8,0.,4.8,0.,4.8
1979-07-18 15:30:47.810 ,7,0,0.,4.8,0.,4.8,0.,4.8,1.,4.8
1979-07-18 15:30:52.610 ,7,0,0.,4.8,1.,4.8,0.,4.8,0.,4.8
1979-07-18 15:30:57.410 ,7,0,0.,4.8,0.,4.8,0.,4.8,0.,4.8
1979-07-18 15:31:02.210 ,7,0,0.,4.8,2.,4.8,0.,4.8,0.,4.8
1979-07-18 15:31:07.010 ,7,0,0.,4.8,0.,4.8,0.,4.8,0.,4.8
1979-07-18 15:31:11.810 ,3,1,0.,4.8,5.,4.8,0.,4.8,0.,4.8
1979-07-18 15:31:16.610 ,3,1,0.,4.8,46.,4.8,12.,4.8,1.,4.8
1979-07-18 15:31:21.410 ,3,1,0.,4.8,46.,4.8,11.,4.8,4.,4.8
1979-07-18 15:31:26.210 ,3,1,0.,4.8,57.,4.8,7.,4.8,3.,4.8
1979-07-18 15:31:31.010 ,3,1,0.,4.8,576.,4.8,31.,4.8,2.,4.8
1979-07-18 15:31:35.810 ,0,1,0.,4.8,960.,4.8,57.,4.8,9.,4.8
1979-07-18 15:31:40.610 ,0,1,0.,4.8,472.,4.8,33.,4.8,12.,4.8
1979-07-18 15:31:45.410 ,0,1,0.,4.8,78.,4.8,7.,4.8,3.,4.8
1979-07-18 15:31:50.210 ,0,1,0.,4.8,30.,4.8,6.,4.8,3.,4.8
1979-07-18 15:31:55.010 ,0,1,0.,4.8,25.,4.8,4.,4.8,3.,4.8
1979-07-18 15:31:59.810 ,4,1,0.,4.8,33.,4.8,4.,4.8,1.,4.8
1979-07-18 15:32:04.610 ,4,1,0.,4.8,74.,4.8,10.,4.8,5.,4.8
1979-07-18 15:32:09.410 ,4,1,0.,4.8,472.,4.8,39.,4.8,9.,4.8
1979-07-18 15:32:14.210 ,4,1,0.,4.8,768.,4.8,41.,4.8,10.,4.8
1979-07-18 15:32:19.010 ,4,1,0.,4.8,496.,4.8,33.,4.8,10.,4.8
1979-07-18 15:32:23.810 ,7,1,0.,4.8,45.,4.8,6.,4.8,2.,4.8
1979-07-18 15:32:28.610 ,7,1,0.,4.8,46.,4.8,12.,4.8,4.,4.8
1979-07-18 15:32:33.410 ,7,1,0.,4.8,44.,4.8,6.,4.8,1.,4.8
1979-07-18 15:32:38.210 ,7,1,0.,4.8,14.,4.8,0.,4.8,1.,4.8
1979-07-18 15:32:43.010 ,7,1,0.,4.8,1.,4.8,0.,4.8,1.,4.8
1979-07-18 15:32:47.810 ,3,1,0.,4.8,12.,4.8,3.,4.8,0.,4.8
1979-07-18 15:32:52.610 ,3,1,0.,4.8,46.,4.8,6.,4.8,3.,4.8
1979-07-18 15:32:57.410 ,3,1,0.,4.8,38.,4.8,6.,4.8,2.,4.8
1979-07-18 15:33:02.210 ,3,1,0.,4.8,64.,4.8,7.,4.8,4.,4.8
1979-07-18 15:33:07.010 ,3,1,0.,4.8,480.,4.8,39.,4.8,8.,4.8
1979-07-18 15:33:11.810 ,0,1,2.,4.8,880.,4.8,59.,4.8,13.,4.8
1979-07-18 15:33:16.610 ,0,1,0.,4.8,464.,4.8,52.,4.8,15.,4.8
1979-07-18 15:33:21.410 ,0,1,0.,4.8,104.,4.8,19.,4.8,3.,4.8
1979-07-18 15:33:26.210 ,0,1,0.,4.8,43.,4.8,5.,4.8,5.,4.8
1979-07-18 15:33:31.010 ,0,1,0.,4.8,27.,4.8,4.,4.8,4.,4.8
1979-07-18 15:33:35.810 ,4,1,0.,4.8,35.,4.8,6.,4.8,2.,4.8
1979-07-18 15:33:40.610 ,4,1,0.,4.8,102.,4.8,15.,4.8,2.,4.8